TimeEST,TemperatureF,Dew PointF,Humidity,Sea Level PressureIn,VisibilityMPH,Wind Direction,Wind SpeedMPH,Gust SpeedMPH,PrecipitationIn,Events,Conditions,WindDirDegrees,DateUTC
12:15 AM,36.7,22.6,57,29.89,10.0,WNW,9.2,16.1,N/A,,Overcast,290,2012-12-30 05:15:00
12:35 AM,36.9,21.9,55,29.90,10.0,WNW,9.2,20.7,N/A,,Overcast,290,2012-12-30 05:35:00
12:55 AM,36.7,20.8,53,29.90,10.0,WNW,11.5,20.7,N/A,,Overcast,290,2012-12-30 05:55:00
1:15 AM,36.1,20.3,53,29.91,10.0,WNW,8.1,19.6,N/A,,Overcast,290,2012-12-30 06:15:00
1:35 AM,35.2,20.5,55,29.93,10.0,WNW,8.1,-,N/A,,Overcast,290,2012-12-30 06:35:00
1:55 AM,35.2,20.3,55,29.93,10.0,WNW,11.5,-,N/A,,Overcast,300,2012-12-30 06:55:00
2:15 AM,35.4,20.1,54,29.94,10.0,NW,12.7,-,N/A,,Overcast,310,2012-12-30 07:15:00
2:35 AM,35.6,20.3,54,29.95,10.0,NW,8.1,16.1,N/A,,Overcast,320,2012-12-30 07:35:00
8:35 AM,32.9,18.7,56,30.19,10.0,NW,5.8,-,N/A,,Overcast,320,2012-12-30 13:35:00
8:55 AM,33.8,18.7,54,30.20,10.0,Calm,Calm,-,N/A,,Mostly Cloudy,0,2012-12-30 13:55:00
9:15 AM,34.2,18.5,53,30.22,10.0,NW,9.2,-,N/A,,Scattered Clouds,310,2012-12-30 14:15:00
9:55 AM,34.9,18.1,51,30.23,10.0,NW,11.5,17.3,N/A,,Scattered Clouds,310,2012-12-30 14:55:00
10:15 AM,35.6,18.3,50,30.24,10.0,WNW,12.7,17.3,N/A,,Scattered Clouds,300,2012-12-30 15:15:00
10:35 AM,36.7,18.0,47,30.25,10.0,WNW,12.7,-,N/A,,Mostly Cloudy,290,2012-12-30 15:35:00
10:55 AM,36.9,16.5,44,30.25,10.0,WNW,11.5,23.0,N/A,,Mostly Cloudy,290,2012-12-30 15:55:00
11:15 AM,37.4,16.2,42,30.25,10.0,WNW,11.5,21.9,N/A,,Scattered Clouds,300,2012-12-30 16:15:00
11:35 AM,37.4,16.2,42,30.25,10.0,NW,20.7,28.8,N/A,,Scattered Clouds,310,2012-12-30 16:35:00
11:55 AM,37.4,16.2,42,30.24,10.0,NW,18.4,26.5,N/A,,Clear,310,2012-12-30 16:55:00
12:15 PM,37.9,16.0,41,30.22,10.0,NW,18.4,26.5,N/A,,Clear,320,2012-12-30 17:15:00
12:35 PM,38.3,15.8,40,30.22,10.0,NW,16.1,24.2,N/A,,Clear,310,2012-12-30 17:35:00
12:55 PM,38.5,16.2,40,30.21,10.0,WNW,12.7,23.0,N/A,,Clear,290,2012-12-30 17:55:00
1:15 PM,38.8,16.2,40,30.21,10.0,NW,10.4,-,N/A,,Clear,320,2012-12-30 18:15:00
1:35 PM,40.1,16.2,38,30.21,10.0,NW,13.8,-,N/A,,Clear,310,2012-12-30 18:35:00
1:55 PM,39.6,15.4,38,30.21,10.0,NW,12.7,16.1,N/A,,Clear,310,2012-12-30 18:55:00
2:15 PM,39.9,16.2,38,30.22,10.0,NW,10.4,16.1,N/A,,Clear,310,2012-12-30 19:15:00
2:35 PM,40.3,15.6,37,30.22,10.0,NW,4.6,-,N/A,,Clear,320,2012-12-30 19:35:00
2:55 PM,39.7,14.0,35,30.23,10.0,WNW,5.8,-,N/A,,Clear,290,2012-12-30 19:55:00
3:15 PM,40.5,15.6,37,30.24,10.0,NNW,8.1,-,N/A,,Clear,330,2012-12-30 20:15:00
3:35 PM,39.7,14.5,36,30.24,10.0,NW,8.1,-,N/A,,Clear,310,2012-12-30 20:35:00
3:55 PM,39.6,14.0,35,30.25,10.0,West,5.8,-,N/A,,Clear,280,2012-12-30 20:55:00
4:15 PM,39.6,14.7,36,30.26,10.0,NW,4.6,-,N/A,,Clear,310,2012-12-30 21:15:00
4:35 PM,38.7,14.2,37,30.27,10.0,WNW,5.8,-,N/A,,Clear,300,2012-12-30 21:35:00
4:55 PM,36.9,15.8,42,30.27,10.0,NW,5.8,-,N/A,,Clear,310,2012-12-30 21:55:00
5:15 PM,35.6,15.1,43,30.28,10.0,Calm,Calm,-,N/A,,Clear,0,2012-12-30 22:15:00
5:35 PM,35.8,14.7,42,30.28,10.0,Calm,Calm,-,N/A,,Clear,0,2012-12-30 22:35:00
5:55 PM,32.2,16.5,53,30.28,10.0,West,4.6,-,N/A,,Clear,270,2012-12-30 22:55:00
6:15 PM,32.4,15.4,50,30.27,10.0,Calm,Calm,-,N/A,,Clear,0,2012-12-30 23:15:00
6:35 PM,32.2,16.2,52,30.27,10.0,Calm,Calm,-,N/A,,Clear,0,2012-12-30 23:35:00
6:55 PM,30.9,17.4,57,30.28,10.0,Calm,Calm,-,N/A,,Clear,0,2012-12-30 23:55:00
7:15 PM,31.5,16.2,53,30.28,10.0,NW,3.5,-,N/A,,Clear,310,2012-12-31 00:15:00
7:35 PM,28.6,17.8,64,30.30,10.0,Calm,Calm,-,N/A,,Clear,0,2012-12-31 00:35:00
7:55 PM,27.5,17.4,66,30.30,10.0,Calm,Calm,-,N/A,,Clear,0,2012-12-31 00:55:00
8:15 PM,27.5,17.4,66,30.29,10.0,Calm,Calm,-,N/A,,Clear,0,2012-12-31 01:15:00
8:35 PM,27.1,17.6,67,30.30,10.0,Calm,Calm,-,N/A,,Clear,0,2012-12-31 01:35:00
8:55 PM,28.2,17.4,64,30.31,10.0,Calm,Calm,-,N/A,,Clear,0,2012-12-31 01:55:00
9:15 PM,27.0,17.4,67,30.31,10.0,Calm,Calm,-,N/A,,Clear,0,2012-12-31 02:15:00
9:35 PM,27.7,17.1,64,30.31,10.0,Calm,Calm,-,N/A,,Clear,0,2012-12-31 02:35:00
9:55 PM,28.2,16.7,62,30.31,10.0,Calm,Calm,-,N/A,,Clear,0,2012-12-31 02:55:00
10:15 PM,28.2,16.7,62,30.32,10.0,Calm,Calm,-,N/A,,Clear,0,2012-12-31 03:15:00
10:55 PM,28.4,16.5,61,30.31,10.0,Calm,Calm,-,N/A,,Clear,0,2012-12-31 03:55:00
11:15 PM,28.6,16.5,61,30.31,10.0,Calm,Calm,-,N/A,,Clear,0,2012-12-31 04:15:00
11:35 PM,28.6,16.3,60,30.31,10.0,Calm,Calm,-,N/A,,Clear,0,2012-12-31 04:35:00
11:55 PM,28.2,16.3,61,30.30,10.0,South,3.5,-,N/A,,Clear,170,2012-12-31 04:55:00